Location: Unspecified
(0.0000°N, 0.0000°E)
Time: 13:57:10
(UTC+00:00)

Tiangong 2 - Visible Passes

Search period start: 23 April 2017 00:00
Search period end: 03 May 2017 00:00
Orbit: 380 x 390 km, 42.8° (Epoch: 21 April)

Date Brightness Start Highest point End Pass type
(mag) Time Alt. Az. Time Alt. Az. Time Alt. Az.
23 Apr 1.7 19:20:19 10° WNW 19:23:24 50° SW 19:23:26 50° SW visible
24 Apr 1.5 18:20:55 10° NNW 18:24:00 48° NE 18:27:04 10° ESE visible
25 Apr 3.6 18:58:53 10° W 19:01:10 18° SW 19:03:27 10° S visible
26 Apr 4.0 04:53:54 10° SSE 04:54:50 11° SE 04:55:47 10° ESE visible
27 Apr 1.0 05:28:53 10° SW 05:32:00 88° SE 05:35:08 10° NE visible
28 Apr 2.7 04:32:04 26° SSE 04:32:33 28° SE 04:35:18 10° ENE visible
29 Apr 2.2 05:08:12 19° W 05:09:39 28° NW 05:12:25 10° NNE visible
30 Apr 3.4 04:12:00 22° NE 04:12:00 22° NE 04:13:17 10° NE visible
01 May 3.6 04:47:58 11° NNW 04:47:58 11° NNW 04:48:19 10° NNW visible
